Cambridge, MD

1:14 PM EDT on June 25, 2017 (GMT -0400)
Cambridge-Dorchester

Weather History for KCGE - February, 2013

Change the Weather History Date:

Monday, February 25, 2013

  Actual Average (KESN) Record (KESN)
Temperature  
Mean Temperature 36 °F -  
Max Temperature 42 °F 53 °F 73 °F (2017)
Min Temperature 30 °F 30 °F 13 °F (1967)
Degree Days  
Heating Degree Days 29    
Moisture  
Dew Point 26 °F    
Average Humidity 67    
Maximum Humidity 93    
Minimum Humidity 49    
Precipitation  
Precipitation 0.00 in - - ()
Sea Level Pressure  
Sea Level Pressure 30.17 in    
Wind  
Wind Speed 7 mph (NW)    
Max Wind Speed 15 mph    
Max Gust Speed 21 mph    
Visibility 10 miles    
Events      
Averages and records for this station are not official NWS values.
T = Trace of Precipitation, MM = Missing Value Source: NWS Daily Summary

Daily Weather History Graph

Daily Weather History Graph

Search for Another Location

Airport or City:

Trip Planner

Search our weather history database for the weather conditions in past years. The results will help you decide how hot, cold, wet, or windy it might be!

Date:

Astronomy

Feb. 25, 2013 Rise Set
Actual Time 6:41 AM EST 5:53 PM EST
Civil Twilight 6:14 AM EST 6:19 PM EST
Nautical Twilight 5:44 AM EST 6:50 PM EST
Astronomical Twilight 5:13 AM EST 7:21 PM EST
Moon 6:03 PM EST 6:10 AM EST
Length of Visible Light 12h 05m
Length of Day
11h 11m
Full, 100% of the Moon is Illuminated
Feb 25
Full
Feb 25
Full
Mar 4
Last Quarter
Mar 11
New
Mar 19
First Quarter

Hourly Weather History & Observations

Time (EST) Temp. Windchill Dew Point Humidity Pressure Visibility Wind Dir Wind Speed Gust Speed Precip Events Conditions
12:19 AM 33.8 °F 25.3 °F 23.0 °F 65% 30.09 in 10.0 mi NW 11.5 mph 17.3 mph N/A   Clear
12:39 AM 33.8 °F 25.8 °F 23.0 °F 65% 30.09 in 10.0 mi NW 10.4 mph 17.3 mph N/A   Clear
12:59 AM 33.8 °F 23.9 °F 23.0 °F 65% 30.09 in 10.0 mi NNW 15.0 mph 18.4 mph N/A   Clear
1:19 AM 33.8 °F 24.3 °F 23.0 °F 65% 30.10 in 10.0 mi NW 13.8 mph 20.7 mph N/A   Clear
1:59 AM 33.8 °F 25.8 °F 23.0 °F 65% 30.10 in 10.0 mi NNW 10.4 mph 17.3 mph N/A   Clear
2:19 AM 33.8 °F 24.8 °F 23.0 °F 65% 30.10 in 10.0 mi NW 12.7 mph 19.6 mph N/A   Clear
3:00 AM 33.8 °F 26.4 °F 23.0 °F 65% 30.10 in 10.0 mi NW 9.2 mph - N/A   Clear
3:20 AM 33.8 °F 26.4 °F 23.0 °F 65% 30.10 in 10.0 mi NW 9.2 mph - N/A   Clear
3:40 AM 32.0 °F 24.8 °F 23.0 °F 69% 30.11 in 10.0 mi NW 8.1 mph - N/A   Clear
4:00 AM 32.0 °F 24.2 °F 23.0 °F 69% 30.12 in 10.0 mi NW 9.2 mph - N/A   Clear
4:20 AM 33.8 °F 26.4 °F 23.0 °F 65% 30.12 in 10.0 mi NW 9.2 mph - N/A   Clear
4:40 AM 33.8 °F 25.8 °F 23.0 °F 65% 30.12 in 10.0 mi NW 10.4 mph - N/A   Clear
5:00 AM 32.0 °F 25.6 °F 23.0 °F 69% 30.12 in 10.0 mi NW 6.9 mph - N/A   Clear
5:20 AM 32.0 °F 25.6 °F 23.0 °F 69% 30.13 in 10.0 mi NW 6.9 mph - N/A   Clear
5:40 AM 32.0 °F 26.4 °F 23.0 °F 69% 30.15 in 10.0 mi NW 5.8 mph - N/A   Clear
6:00 AM 32.0 °F 26.4 °F 23.0 °F 69% 30.15 in 10.0 mi WNW 5.8 mph - N/A   Clear
6:20 AM 32.0 °F 25.6 °F 23.0 °F 69% 30.15 in 10.0 mi NW 6.9 mph - N/A   Clear
7:00 AM 32.0 °F 26.4 °F 23.0 °F 69% 30.16 in 10.0 mi NW 5.8 mph - N/A   Clear
7:20 AM 33.8 °F 28.6 °F 24.8 °F 70% 30.16 in 10.0 mi NW 5.8 mph - N/A   Clear
8:00 AM 33.8 °F 26.4 °F 23.0 °F 65% 30.17 in 10.0 mi NNW 9.2 mph - N/A   Clear
8:20 AM 33.8 °F 27.7 °F 23.0 °F 65% 30.16 in 10.0 mi NNW 6.9 mph - N/A   Clear
8:40 AM 33.8 °F 26.4 °F 23.0 °F 65% 30.18 in 10.0 mi NW 9.2 mph - N/A   Clear
9:00 AM 35.6 °F 28.6 °F 23.0 °F 60% 30.18 in 10.0 mi NNW 9.2 mph - N/A   Clear
9:20 AM 35.6 °F 28.6 °F 23.0 °F 60% 30.17 in 10.0 mi NNW 9.2 mph - N/A   Clear
9:40 AM 35.6 °F 29.2 °F 24.8 °F 65% 30.19 in 10.0 mi NNW 8.1 mph - N/A   Clear
10:00 AM 35.6 °F 28.6 °F 24.8 °F 65% 30.20 in 10.0 mi NW 9.2 mph - N/A   Clear
10:20 AM 37.4 °F 32.1 °F 26.6 °F 65% 30.18 in 10.0 mi NW 6.9 mph - N/A   Clear
10:40 AM 39.2 °F 34.2 °F 26.6 °F 61% 30.19 in 10.0 mi NW 6.9 mph - N/A   Clear
11:00 AM 39.2 °F 34.2 °F 26.6 °F 61% 30.19 in 10.0 mi NW 6.9 mph - N/A   Clear
11:21 AM 39.2 °F 37.0 °F 24.8 °F 56% 30.19 in 10.0 mi NNW 3.5 mph - N/A   Clear
11:41 AM 41.0 °F 37.1 °F 26.6 °F 57% 30.19 in 10.0 mi NW 5.8 mph - N/A   Clear
12:01 PM 41.0 °F - 24.8 °F 53% 30.19 in 10.0 mi Calm Calm - N/A   Clear
12:21 PM 41.0 °F 39.0 °F 26.6 °F 57% 30.20 in 10.0 mi WSW 3.5 mph - N/A   Clear
12:41 PM 42.8 °F 40.1 °F 26.6 °F 53% 30.19 in 10.0 mi North 4.6 mph - N/A   Clear
1:01 PM 41.0 °F - 26.6 °F 57% 30.19 in 10.0 mi Calm Calm - N/A   Clear
1:21 PM 41.0 °F 38.0 °F 26.6 °F 57% 30.18 in 10.0 mi NNW 4.6 mph - N/A   Clear
1:41 PM 42.8 °F 41.1 °F 26.6 °F 53% 30.18 in 10.0 mi North 3.5 mph - N/A   Clear
2:01 PM 42.8 °F 39.3 °F 26.6 °F 53% 30.18 in 10.0 mi NW 5.8 mph - N/A   Clear
2:21 PM 42.8 °F 40.1 °F 26.6 °F 53% 30.17 in 10.0 mi North 4.6 mph - N/A   Clear
2:41 PM 42.8 °F 38.6 °F 26.6 °F 53% 30.17 in 10.0 mi NNW 6.9 mph - N/A   Clear
3:01 PM 42.8 °F 39.3 °F 26.6 °F 53% 30.17 in 10.0 mi NNW 5.8 mph - N/A   Clear
3:21 PM 42.8 °F 39.3 °F 24.8 °F 49% 30.17 in 10.0 mi North 5.8 mph - N/A   Clear
3:41 PM 42.8 °F 39.3 °F 24.8 °F 49% 30.16 in 10.0 mi North 5.8 mph - N/A   Clear
4:01 PM 41.0 °F 39.0 °F 26.6 °F 57% 30.17 in 10.0 mi North 3.5 mph - N/A   Clear
4:21 PM 41.0 °F - 26.6 °F 57% 30.17 in 10.0 mi Calm Calm - N/A   Clear
4:41 PM 42.8 °F - 26.6 °F 53% 30.17 in 10.0 mi Calm Calm - N/A   Clear
5:01 PM 41.0 °F 38.0 °F 26.6 °F 57% 30.18 in 10.0 mi WNW 4.6 mph - N/A   Clear
5:21 PM 41.0 °F 38.0 °F 26.6 °F 57% 30.19 in 10.0 mi WNW 4.6 mph - N/A   Clear
5:41 PM 41.0 °F 39.0 °F 26.6 °F 57% 30.18 in 10.0 mi WNW 3.5 mph - N/A   Clear
6:01 PM 39.2 °F - 28.4 °F 65% 30.19 in 10.0 mi Calm Calm - N/A   Clear
6:21 PM 37.4 °F - 26.6 °F 65% 30.19 in 10.0 mi Calm Calm - N/A   Clear
6:41 PM 35.6 °F - 28.4 °F 75% 30.19 in 10.0 mi Calm Calm - N/A   Clear
7:01 PM 33.8 °F - 28.4 °F 81% 30.20 in 10.0 mi Calm Calm - N/A   Clear
7:21 PM 33.8 °F - 28.4 °F 81% 30.22 in 10.0 mi Calm Calm - N/A   Clear
7:41 PM 33.8 °F - 28.4 °F 81% 30.23 in 10.0 mi Calm Calm - N/A   Clear
8:02 PM 33.8 °F 27.7 °F 30.2 °F 87% 30.23 in 10.0 mi ESE 6.9 mph - N/A   Clear
8:22 PM 33.8 °F 28.6 °F 28.4 °F 81% 30.23 in 10.0 mi ESE 5.8 mph - N/A   Clear
8:42 PM 33.8 °F 28.6 °F 30.2 °F 87% 30.23 in 10.0 mi SE 5.8 mph - N/A   Clear
9:02 PM 33.8 °F 29.6 °F 30.2 °F 87% 30.23 in 10.0 mi SE 4.6 mph - N/A   Clear
9:22 PM 33.8 °F - 30.2 °F 87% 30.23 in 10.0 mi Calm Calm - N/A   Clear
9:42 PM 33.8 °F - 30.2 °F 87% 30.22 in 10.0 mi Calm Calm - N/A   Clear
10:02 PM 32.0 °F - 28.4 °F 87% 30.23 in 10.0 mi Calm Calm - N/A   Clear
10:22 PM 32.0 °F 28.7 °F 28.4 °F 87% 30.22 in 10.0 mi SE 3.5 mph - N/A   Clear
10:42 PM 32.0 °F - 28.4 °F 87% 30.21 in 10.0 mi Calm Calm - N/A   Clear
11:02 PM 32.0 °F - 28.4 °F 87% 30.22 in 10.0 mi Calm Calm - N/A   Clear
11:22 PM 30.2 °F 26.7 °F 28.4 °F 93% 30.21 in 10.0 mi ESE 3.5 mph - N/A   Clear
11:42 PM 30.2 °F - 28.4 °F 93% 30.21 in 10.0 mi Calm Calm - N/A   Clear